Location: Alfords
(31.4624°N, 83.9238°W)
Time: 18:03:21
(UTC+00:00)

N. Korean satellite - Pass Details

Date: 23 September 2021
Orbit: 450 x 495 km, 97.3° (Epoch: 15 October)

Event Time Altitude Azimuth Distance (km) Brightness Sun altitude
Rises 10:46:35 0° 10° (N) 2,522 10.4 -9.0°
Reaches altitude 10° 10:48:37 10° 11° (N) 1,649 9.5 -8.5°
Maximum altitude 10:52:10 88° 279° (W) 486 6.5 -7.8°
Drops below altitude 10° 10:55:45 10° 193° (SSW) 1,663 9.1 -7.0°
Sets 10:57:49 0° 193° (SSW) 2,546 10.0 -6.6°
